Weather History for KICR - September, 2013

Change the Weather History Date:

Monday, September 16, 2013

  Actual Average Record
Temperature  
Mean Temperature 58 °F 64 °F  
Max Temperature 71 °F 77 °F 87 °F (2007)
Min Temperature 45 °F 51 °F 43 °F (2011)
Degree Days  
Heating Degree Days 7 4  
Month to date heating degree days 14 42  
Since 1 July heating degree days 21 56  
Cooling Degree Days 0 3  
Month to date cooling degree days 160 78  
Year to date cooling degree days 951 884  
Growing Degree Days 7 (Base 50)    
Moisture  
Dew Point 48 °F    
Average Humidity 72    
Maximum Humidity 96    
Minimum Humidity 47    
Precipitation  
Precipitation 0.01 in 0.08 in 0.01 in (2013)
Month to date precipitation 0.32 1.06  
Year to date precipitation 16.31 18.06  
Sea Level Pressure  
Sea Level Pressure 30.25 in    
Wind  
Wind Speed 12 mph (SSE)    
Max Wind Speed 23 mph    
Max Gust Speed 29 mph    
Visibility 6 miles    
Events Fog , Rain    
T = Trace of Precipitation, MM = Missing Value Source: NWS Daily Summary

Daily Weather History Graph

Daily Weather History Graph

Search for Another Location

Airport or City:

Trip Planner

Search our weather history database for the weather conditions in past years. The results will help you decide how hot, cold, wet, or windy it might be!

Date:

Astronomy

Sep. 16, 2013 Rise Set
Actual Time 7:20 AM CDT 7:47 PM CDT
Civil Twilight 6:51 AM CDT 8:15 PM CDT
Nautical Twilight 6:17 AM CDT 8:49 PM CDT
Astronomical Twilight 5:42 AM CDT 9:24 PM CDT
Moon 6:00 PM CDT (9/16) 4:04 AM CDT (9/16)
Length of Visible Light 13h 24m
Length of Day
12h 26m
Waxing Gibbous, 90% of the Moon is Illuminated
Sep 16
Waxing Gibbous
Sep 19
Full
Sep 26
Last Quarter
Oct 4
New
Oct 11
First Quarter

Hourly Weather History & Observations

Time (CDT) Temp. Windchill Dew Point Humidity Pressure Visibility Wind Dir Wind Speed Gust Speed Precip Events Conditions
12:23 AM 51.8 °F - 50.0 °F 94% 30.31 in 10.0 mi ENE 4.6 mph - N/A   Mostly Cloudy
12:53 AM 52.0 °F - 50.0 °F 93% 30.30 in 10.0 mi East 3.5 mph - 0.00 in Rain Light Rain
1:53 AM 50.0 °F - 48.9 °F 96% 30.30 in 8.0 mi SSE 4.6 mph - 0.00 in   Clear
2:45 AM 48.2 °F - 48.2 °F 100% 30.30 in 2.0 mi SE 6.9 mph - N/A   Clear
2:53 AM 48.9 °F - 46.9 °F 93% 30.30 in 2.5 mi SE 5.8 mph - N/A   Clear
3:03 AM 48.2 °F - 48.2 °F 100% 30.30 in 4.0 mi SSE 6.9 mph - 0.00 in Rain Light Rain
3:22 AM 48.2 °F - 46.4 °F 93% 30.29 in 2.0 mi SSE 5.8 mph - 0.00 in   Partly Cloudy
3:25 AM 48.2 °F - 46.4 °F 93% 30.29 in 1.5 mi SSE 5.8 mph - 0.00 in   Partly Cloudy
3:30 AM 48.2 °F - 48.2 °F 100% 30.29 in 0.8 mi SSE 5.8 mph - 0.00 in   Mist
3:47 AM 48.2 °F - 46.4 °F 93% 30.29 in 1.2 mi SSE 6.9 mph - 0.00 in   Scattered Clouds
3:53 AM 48.9 °F - 48.0 °F 97% 30.29 in 2.0 mi SSE 6.9 mph - 0.00 in Rain Light Rain
4:04 AM 48.2 °F - 46.4 °F 93% 30.29 in 1.0 mi SSE 5.8 mph - 0.00 in   Mist
4:12 AM 46.4 °F 43.5 °F 46.4 °F 100% 30.29 in 0.5 mi SSE 5.8 mph - 0.00 in Fog Fog
4:36 AM 48.2 °F - 46.4 °F 93% 30.29 in 1.5 mi SSE 6.9 mph - 0.00 in Rain Light Rain
4:38 AM 48.2 °F - 46.4 °F 93% 30.29 in 2.5 mi SSE 5.8 mph - 0.00 in Rain Light Rain
4:41 AM 48.2 °F - 46.4 °F 93% 30.29 in 4.0 mi SSE 6.9 mph - 0.00 in Rain Light Rain
4:53 AM 46.9 °F - 46.0 °F 97% 30.29 in 7.0 mi SE 5.8 mph - 0.00 in Rain Light Rain
5:27 AM 46.4 °F 42.9 °F 46.4 °F 100% 30.28 in 2.5 mi SE 6.9 mph - 0.01 in   Partly Cloudy
5:37 AM 44.6 °F 40.2 °F 44.6 °F 100% 30.29 in 1.0 mi SSE 8.1 mph - 0.01 in   Mist
5:41 AM 46.4 °F 42.4 °F 44.6 °F 93% 30.29 in 0.5 mi SSE 8.1 mph - 0.01 in Fog Fog
5:53 AM 46.9 °F - 46.0 °F 97% 30.29 in 0.5 mi SSE 8.1 mph - 0.01 in Fog , Rain Light Rain
6:53 AM 46.9 °F - 46.0 °F 97% 30.30 in 0.5 mi SSE 8.1 mph - 0.00 in Fog , Rain Light Rain
7:04 AM 46.4 °F 42.9 °F 46.4 °F 100% 30.29 in 2.0 mi SSE 6.9 mph - 0.00 in   Mostly Cloudy
7:06 AM 46.4 °F 42.9 °F 44.6 °F 93% 30.29 in 4.0 mi SSE 6.9 mph - 0.00 in   Mostly Cloudy
7:12 AM 46.4 °F 42.9 °F 44.6 °F 93% 30.29 in 2.0 mi SSE 6.9 mph - 0.00 in   Mostly Cloudy
7:17 AM 46.4 °F 42.4 °F 44.6 °F 93% 30.29 in 0.8 mi SE 8.1 mph - 0.00 in   Mist
7:53 AM 46.0 °F 42.5 °F 46.0 °F 100% 30.32 in 0.8 mi SE 6.9 mph - 0.00 in   Overcast
8:00 AM 46.4 °F 42.9 °F 44.6 °F 93% 30.30 in 0.5 mi SE 6.9 mph - N/A Fog Fog
8:09 AM 46.4 °F 42.9 °F 46.4 °F 100% 30.30 in 1.0 mi SE 6.9 mph - N/A   Overcast
8:14 AM 46.4 °F 43.5 °F 46.4 °F 100% 30.30 in 2.5 mi SE 5.8 mph - N/A   Overcast
8:21 AM 48.2 °F - 46.4 °F 93% 30.30 in 10.0 mi SSE 5.8 mph - N/A   Overcast
8:53 AM 51.1 °F - 50.0 °F 96% 30.31 in 10.0 mi SSE 5.8 mph - N/A   Overcast
9:53 AM 55.0 °F - 53.1 °F 93% 30.30 in 10.0 mi SE 9.2 mph - N/A   Overcast
10:53 AM 59.0 °F - 52.0 °F 78% 30.29 in 10.0 mi SE 11.5 mph - N/A   Overcast
11:53 AM 62.1 °F - 50.0 °F 65% 30.27 in 10.0 mi South 15.0 mph 19.6 mph N/A   Overcast
12:53 PM 63.0 °F - 50.0 °F 63% 30.25 in 10.0 mi South 13.8 mph 23.0 mph N/A   Overcast
1:53 PM 66.0 °F - 50.0 °F 56% 30.23 in 10.0 mi SSE 16.1 mph 25.3 mph N/A   Overcast
2:16 PM 66.2 °F - 48.2 °F 52% 30.22 in 10.0 mi SSE 17.3 mph 25.3 mph N/A   Overcast
2:53 PM 66.0 °F - 48.9 °F 54% 30.20 in 10.0 mi SSE 17.3 mph 24.2 mph N/A   Overcast
3:53 PM 68.0 °F - 48.9 °F 50% 30.17 in 10.0 mi South 19.6 mph 26.5 mph N/A   Mostly Cloudy
4:53 PM 68.0 °F - 48.0 °F 49% 30.14 in 10.0 mi SSE 17.3 mph 25.3 mph N/A   Mostly Cloudy
5:53 PM 70.0 °F - 48.9 °F 47% 30.11 in 10.0 mi SE 16.1 mph 24.2 mph N/A   Mostly Cloudy
6:53 PM 66.9 °F - 48.9 °F 52% 30.10 in 10.0 mi SE 20.7 mph 26.5 mph N/A   Mostly Cloudy
7:53 PM 64.0 °F - 50.0 °F 60% 30.09 in 10.0 mi SSE 11.5 mph 20.7 mph N/A   Clear
8:53 PM 62.1 °F - 50.0 °F 65% 30.09 in 10.0 mi SSE 10.4 mph - N/A   Partly Cloudy
9:53 PM 57.0 °F - 50.0 °F 77% 30.09 in 10.0 mi SE 6.9 mph - N/A   Mostly Cloudy
10:53 PM 62.1 °F - 51.1 °F 67% 30.07 in 10.0 mi SSE 13.8 mph - N/A   Overcast
11:51 PM 60.8 °F - 51.8 °F 72% 30.07 in 10.0 mi South 15.0 mph 26.5 mph N/A   Mostly Cloudy
11:53 PM 60.1 °F - 51.1 °F 72% 30.06 in 10.0 mi South 17.3 mph 26.5 mph N/A   Mostly Cloudy